Regional Weather Roundup
Issued by NWS

Home | Current Version | Previous Version | Graphics & Text | Print | Product List | Glossary On
Versions: 1 2 3 4 5 6 7 8 9 10 11 12 13 14 15 16 17 18 19 20 21 22 23 24 25 26 27 28 29 30 31 32 33 34 35 36 37 38 39 40 41 42 43 44 45 46 47 48 49 50
047
ASUS43 KMKX 270700
RWRWI

WISCONSIN REGIONAL WEATHER ROUNDUP
NATIONAL WEATHER SERVICE MILWAUKEE/SULLIVAN WI
200 AM CDT MON MAR 27 2017

NOTE: "FAIR" INDICATES FEW OR NO CLOUDS BELOW 12,000 FEET WITH NO
SIGNIFICANT WEATHER AND/OR OBSTRUCTIONS TO VISIBILITY.

WIZ001-002-006>008-014>016-023>028-270800-
NORTHWEST WISCONSIN

CITY           SKY/WX    TMP DP  RH WIND       PRES   REMARKS
SUPERIOR ARPT  CLOUDY    32  32 100 CALM      29.96S FOG
ASHLAND        CLOUDY    32  31  96 CALM      29.94F
HAYWARD        CLOUDY    35  32  88 N3        29.91F
SIREN          CLOUDY    34  34  98 CALM      29.94S
CUMBERLAND     FOG       32  32 100 NW3       29.92S VSB 3/4
RICE LAKE      CLOUDY    36  35  96 CALM      29.93S
CHETEK         CLOUDY    36  35  98 CALM      29.91F
LADYSMITH      CLOUDY    35  33  92 N5        29.91F WCI  31
EAU CLAIRE     CLOUDY    39  37  93 N3        29.89F
MENOMONIE      CLOUDY    39  38  96 N5        29.91F FOG
NEW RICHMOND   CLOUDY    35  35 100 NW5       29.92F WCI  31
OSCEOLA        CLOUDY    36  36 100 N3        29.96S
$$

WIZ003>005-009-010-017-018-270800-
NORTH CENTRAL WISCONSIN

CITY           SKY/WX    TMP DP  RH WIND       PRES   REMARKS
MANITOWISH WTR CLOUDY    31  31 100 N3        29.87F
ARBOR VITAE    CLOUDY    34  33  96 N3        29.86F
WOODRUFF       CLOUDY    34  33  96 N3        29.86F
RHINELANDER    CLOUDY    35  34  96 NW3       29.86F
EAGLE RIVER    CLOUDY    32  32 100 N3        29.86S
LAND O LAKES   CLOUDY    33  33 100 N6        29.88F WCI  27
PHILLIPS       CLOUDY    32  32 100 CALM      29.88F
TOMAHAWK       CLOUDY    33  33  96 CALM      29.88F
MEDFORD        CLOUDY    36  35  97 N3        29.87F
MERRILL        CLOUDY    37  37 100 CALM      29.88S
$$

WIZ029-030-035-036-043>047-270800-
CENTRAL WISCONSIN

CITY           SKY/WX    TMP DP  RH WIND       PRES   REMARKS
WAUSAU         CLOUDY    38  37  97 NW3       29.86S
MOSINEE        CLOUDY    36  36 100 W6        29.88S WCI  31
MARSHFIELD     CLOUDY    38  37  97 N6        29.86F WCI  33
STEVENS POINT  CLOUDY    37  37 100 W3        29.88S FOG
WAUPACA        CLOUDY    39  38  96 CALM      29.88F
WAUTOMA        CLOUDY    39  38  96 CALM      29.87F FOG
WISC RAPIDS    FOG       39  39 100 NW3       29.88F VSB 3/4
CAMP DOUGLAS   CLOUDY    39  39 100 W3        29.88F FOG
$$

WIZ011>013-019>022-031-037>040-048>050-270800-
NORTHEAST WISCONSIN

CITY           SKY/WX    TMP DP  RH WIND       PRES   REMARKS
ANTIGO         CLOUDY    35  35 100 CALM      29.86F
SHAWANO        CLOUDY    38  37  94 CALM      29.88F
OCONTO         CLOUDY    36  35  99 CALM      29.87F
STURGEON BAY   MIX PCPN  34  34 100 NW6       29.86F VSB 3/4 WCI  29
GREEN BAY      CLOUDY    38  38 100 NW5       29.87F WCI  34
MANITOWOC      NOT AVBL
APPLETON       CLOUDY    36  36 100 W5        29.86S WCI  32
CLINTONVILLE   CLOUDY    36  36 100 CALM      29.87F
OSHKOSH        CLOUDY    38  36  92 NW5       29.87S WCI  34
$$

WIZ032>034-041-042-053>061-270800-
SOUTHWEST WISCONSIN

CITY           SKY/WX    TMP DP  RH WIND       PRES   REMARKS
LA CROSSE      CLOUDY    42  40  92 CALM      29.91S
SPARTA         CLOUDY    39  39 100 CALM      29.90F FOG
VIROQUA        CLOUDY    39  39 100 NW3       29.89S VSB 1/2
BOSCOBEL       CLOUDY    43  41  93 CALM      29.92R
PRAIRIE DU CHI CLOUDY    41  40  93 CALM      29.91F
PLATTEVILLE    CLOUDY    42  42 100 W5        29.90S VSB 1
$$

WIZ056-057-062-063-064-067-068-270800-
SOUTH CENTRAL WISCONSIN

CITY           SKY/WX    TMP DP  RH WIND       PRES   REMARKS
REEDSBURG      CLOUDY    39  39 100 CALM      29.88F FOG
BARABOO/DELLS  CLOUDY    39  38  99 CALM      29.88S FOG
LONE ROCK      NOT AVBL
MINERAL POINT  CLOUDY    43  43 100 NW3       29.89S FOG
MADISON        CLOUDY    41  39  93 MISG      29.88S
MIDDLETON      CLOUDY    42  42 100 NW3       29.88S
WATERTOWN      CLOUDY    40  40 100 W3        29.87S
MONROE         CLOUDY    41  41 100 NW3       29.89S
JANESVILLE     CLOUDY    43  43 100 CALM      29.89R
$$

WIZ051-052-058>065-066-070>072-270800-
SOUTHEAST WISCONSIN

CITY           SKY/WX    TMP DP  RH WIND       PRES   REMARKS
MILWAUKEE      CLOUDY    44  41  89 W5        29.86S
WAUKESHA       CLOUDY    37  37 100 W7        29.87F WCI  32
MILWAUKEE/TIMM CLOUDY    41  37  87 NW6       29.87F
RACINE         FOG       42  41  96 CALM      29.88S VSB 1/2
KENOSHA        CLOUDY    45  43  93 NW8       29.87R FOG
FOND DU LAC    LGT RAIN  39  36  89 NW5       29.87F
SHEBOYGAN      CLOUDY    38  36  92 W6        29.87R WCI  33
WEST BEND      CLOUDY    37  37 100 NW5       29.87S FOG     WCI  34
JUNEAU         CLOUDY    38  38  97 N3        29.88F
$$

LSZ147-162-270800-
LAKE SUPERIOR

STATION/POSITION TIME  TEMP    WIND        PRES    WAVE
                       AIR SEA DIR/SP/G            HT/PER
                 (UTC) (F)     (DEG/KT/KT) (MB)    (FT/S)
DEVILS ISLAND    0600   34     310/  6/  7 1015.1R
PORT WING        0640   34      30/  2/  3 1014.6S
SAXON HARBOR     0630   33     310/  6/  7 1013.5S
$$

LMZ867-665-643>646-270800-
LAKE MICHIGAN

STATION/POSITION TIME  TEMP    WIND        PRES    WAVE
                       AIR SEA DIR/SP/G            HT/PER
                 (UTC) (F)     (DEG/KT/KT) (MB)    (FT/S)
CHAMBERS ISLAND  0640   35     270/  5/  6 1011.2S
NORTHPORT PIER   0640   34     300/  4/  7 1011.2S
KEWAUNEE LAKESHO 0630   36     320/  2/  5 1011.1S
SHEBOYGAN LAKESH 0600   39     310/  5/  6 1011.8F
PORT WASHINGTON  0630   42     300/  5/  7 1012.5S
MILWAUKEE LAKESH 0640   40      90/  1/  2   N/A
KENOSHA   LAKESH 0600   39      40/  2/  3 1011.5
$$

TC  - TEMPERATURE IN CELSIUS
VSB - VISIBILITY IN STATUTE MILES
WCI - WIND CHILL INDEX
HX  - HEAT INDEX





USA.gov is the U.S. government's official web portal to all federal, state and local government web resources and services.